TimeCDT,TemperatureF,Dew PointF,Humidity,Sea Level PressureIn,VisibilityMPH,Wind Direction,Wind SpeedMPH,Gust SpeedMPH,PrecipitationIn,Events,Conditions,WindDirDegrees,DateUTC
12:53 AM,80.1,75.0,85,29.98,10.0,SW,5.8,-,N/A,,Clear,220,2013-08-01 05:53:00
1:53 AM,79.0,75.0,88,29.97,10.0,WSW,3.5,-,N/A,,Clear,240,2013-08-01 06:53:00
2:53 AM,78.1,75.0,90,29.95,10.0,SW,3.5,-,N/A,,Clear,230,2013-08-01 07:53:00
3:53 AM,77.0,73.9,90,29.97,9.0,Calm,Calm,-,N/A,,Partly Cloudy,0,2013-08-01 08:53:00
4:53 AM,77.0,75.0,94,29.98,9.0,Calm,Calm,-,N/A,,Clear,0,2013-08-01 09:53:00
5:53 AM,75.9,73.9,94,29.99,8.0,Calm,Calm,-,N/A,,Mostly Cloudy,0,2013-08-01 10:53:00
6:53 AM,77.0,75.0,94,30.01,7.0,Calm,Calm,-,N/A,,Overcast,0,2013-08-01 11:53:00
7:53 AM,78.1,75.9,93,30.01,6.0,WSW,4.6,-,N/A,,Overcast,240,2013-08-01 12:53:00
8:53 AM,81.0,75.9,85,30.02,9.0,Variable,3.5,-,N/A,,Mostly Cloudy,0,2013-08-01 13:53:00
9:53 AM,80.1,77.0,90,30.03,8.0,Calm,Calm,-,0.00,Rain,Light Rain,0,2013-08-01 14:53:00
10:53 AM,81.0,75.9,85,30.04,8.0,Calm,Calm,-,0.00,,Overcast,0,2013-08-01 15:53:00
11:53 AM,84.0,75.9,76,30.03,9.0,SW,5.8,-,0.00,,Mostly Cloudy,230,2013-08-01 16:53:00
12:53 PM,86.0,75.0,70,30.00,10.0,SW,3.5,-,N/A,,Partly Cloudy,220,2013-08-01 17:53:00
1:53 PM,90.0,75.9,63,29.98,10.0,SW,6.9,-,N/A,,Clear,230,2013-08-01 18:53:00
2:53 PM,93.0,75.9,57,29.97,10.0,Variable,4.6,-,N/A,,Partly Cloudy,0,2013-08-01 19:53:00
3:53 PM,93.9,77.0,58,29.94,10.0,Variable,4.6,-,N/A,,Clear,0,2013-08-01 20:53:00
4:53 PM,95.0,75.9,54,29.93,10.0,North,5.8,-,N/A,,Scattered Clouds,10,2013-08-01 21:53:00
5:53 PM,95.0,75.0,52,29.91,10.0,North,6.9,-,N/A,,Clear,360,2013-08-01 22:53:00
6:53 PM,93.0,75.9,57,29.90,10.0,North,5.8,-,N/A,,Partly Cloudy,360,2013-08-01 23:53:00
7:53 PM,89.1,77.0,67,29.92,9.0,Calm,Calm,-,N/A,,Clear,0,2013-08-02 00:53:00
8:53 PM,82.9,78.1,85,29.94,10.0,Calm,Calm,-,N/A,,Clear,0,2013-08-02 01:53:00
9:53 PM,82.9,78.1,85,29.95,8.0,Calm,Calm,-,N/A,,Partly Cloudy,0,2013-08-02 02:53:00
10:53 PM,82.9,77.0,82,29.96,10.0,South,3.5,-,N/A,,Partly Cloudy,180,2013-08-02 03:53:00
11:53 PM,80.1,75.9,87,29.95,9.0,Calm,Calm,-,N/A,,Clear,0,2013-08-02 04:53:00